This demonstration page uses our WeatherBlox Daily Observations layout. Learn more.

Left ArrowRight Arrow

38.20091, -84.87328

Hourly Observations for July 1, 2021

Temp ( °F °C ) Dew Point ( °F °C ) Humidity (%) Winds ( mph kmh ) Pressure ( in mb ) Visibility ( mi km ) Precip ( " mm )
12:25 am 00:25 Clear with Nearby Thunderstorms 76 24.4 68 20 77 77 S 7 11 30.01 1016 10 16 0.00 0.00
12:53 am 00:53 Partly Cloudy 75 23.9 68 20 79 79 S 6 9 30.00 1016 10 16 0.00 0.00
1:53 am 01:53 Mostly Cloudy 75 23.9 68 20 79 79 Calm 29.98 1015 10 16 0.00 0.00
2:53 am 02:53 Mostly Cloudy with Light Rain 73 22.8 70 21.1 90 90 W 7 11 29.97 1015 5 8 0.03 0.76
3:30 am 03:30 Cloudy with Heavy Rain 73 22.8 71 21.7 94 94 W 3 6 29.96 1015 2 3 0.07 1.78
3:38 am 03:38 Mostly Cloudy with Light Rain 73 22.8 71 21.7 94 94 WSW 5 7 29.96 1015 6 10 0.08 2.03
3:53 am 03:53 Partly Cloudy with Light Rain 73 22.8 71 21.7 94 94 Calm 29.95 1014 6 10 0.10 2.54
4:53 am 04:53 Cloudy 73 22.8 71 21.7 94 94 S 3 6 29.96 1015 10 16 0.01 0.25
5:22 am 05:22 Cloudy with Heavy Rain 73 22.8 72 22.2 96 96 Calm 29.95 1014 2 3 0.07 1.78
5:31 am 05:31 Cloudy with Light Rain 73 22.8 71 21.7 94 94 Calm 29.95 1014 3 5 0.08 2.03
5:53 am 05:53 Cloudy with Light Rain 73 22.8 71 21.7 94 94 Calm 29.95 1014 8 13 0.09 2.29
6:42 am 06:42 Cloudy with Nearby Thunderstorms 73 22.8 71 21.7 94 94 Calm 29.94 1014 9 14 0.00 0.00
6:53 am 06:53 Cloudy with Heavy Rain 73 22.8 71 21.7 94 94 N 7 11 29.95 1014 2 3 0.09 2.29
7:00 am 07:00 Cloudy with Nearby Thunderstorms 73 22.8 71 21.7 94 94 NNW 6 9 29.95 1014 2 3 0.03 0.76
7:02 am 07:02 Cloudy with Nearby Thunderstorms 73 22.8 71 21.7 94 94 NNW 6 9 29.95 1014 3 5 0.03 0.76
7:33 am 07:33 Cloudy 73 22.8 71 21.7 94 94 Calm 29.95 1014 10 16 0.04 1.02
7:53 am 07:53 Cloudy 73 22.8 71 21.7 94 94 NW 3 6 29.94 1014 10 16 0.04 1.02
8:24 am 08:24 Cloudy 73 22.8 72 22.2 96 96 NW 3 6 29.95 1014 9 14 0.01 0.25
8:53 am 08:53 Cloudy with Light Rain 74 23.3 72 22.2 94 94 NW 3 6 29.96 1015 8 13 0.01 0.25
9:02 am 09:02 Cloudy with Light Rain 74 23.3 72 22.2 94 94 Calm 29.96 1015 4 6 0.01 0.25
9:08 am 09:08 Cloudy with Light Rain 74 23.3 72 22.2 94 94 Calm 29.96 1015 2 3 0.03 0.76
9:13 am 09:13 Cloudy with Light Rain 74 23.3 72 22.2 94 94 Calm 29.96 1015 3 5 0.03 0.76
9:35 am 09:35 Cloudy with Light Rain 74 23.3 71 21.7 91 91 NNE 3 6 29.95 1014 7 11 0.04 1.02
9:53 am 09:53 Cloudy 74 23.3 71 21.7 91 91 Calm 29.96 1015 10 16 0.04 1.02
10:03 am 10:03 Cloudy 74 23.3 70 21.1 88 88 NE 3 6 29.95 1014 10 16 0.00 0.00
10:19 am 10:19 Cloudy with Light Rain 74 23.3 71 21.7 91 91 NNE 3 6 29.95 1014 10 16 0.00 0.00
10:53 am 10:53 Cloudy 74 23.3 70 21.1 88 88 Calm 29.96 1015 10 16 0.00 0.00
11:53 am 11:53 Cloudy with Light Rain 74 23.3 71 21.7 91 91 ENE 5 7 29.94 1014 7 11 0.04 1.02
12:53 pm 12:53 Cloudy with Rain 73 22.8 70 21.1 90 90 Calm 29.94 1014 3 4 0.04 1.02
1:02 pm 13:02 Cloudy with Light Rain 73 22.8 71 21.7 94 94 Calm 29.93 1014 4 6 0.01 0.25
1:41 pm 13:41 Cloudy with Rain 72 22.2 70 21.1 94 94 SW 3 6 29.94 1014 2 3 0.10 2.54
1:51 pm 13:51 Cloudy with Rain 72 22 70 21 94 94 WSW 3 6 29.96 1014 2 3 0.12 3.05
1:53 pm 13:53 Cloudy with Rain 72 22.2 70 21.1 94 94 SW 3 6 29.96 1014 2 3 0.13 3.30
2:44 pm 14:44 Cloudy with Light Rain 72 22.2 70 21.1 94 94 WSW 5 7 29.94 1014 3 5 0.17 4.32
2:53 pm 14:53 Cloudy with Light Rain 71 21.7 69 20.6 94 94 Calm 29.94 1014 4 6 0.18 4.57
3:03 pm 15:03 Cloudy with Light Rain 71 21.7 69 20.6 94 94 Calm 29.94 1014 5 8 0.01 0.25
3:14 pm 15:14 Cloudy with Light Rain 71 21.7 69 20.6 94 94 Calm 29.93 1013 5 8 0.02 0.51
3:21 pm 15:21 Cloudy with Light Rain 71 21.7 69 20.6 94 94 Calm 29.93 1013 6 10 0.03 0.76
3:26 pm 15:26 Cloudy with Light Rain 72 22.2 69 20.6 91 91 Calm 29.91 1013 7 11 0.03 0.76
3:53 pm 15:53 Cloudy with Light Rain 72 22.2 69 20.6 91 91 Calm 29.92 1013 10 16 0.04 1.02
4:28 pm 16:28 Cloudy with Light Rain 72 22.2 69 20.6 91 91 Calm 29.90 1013 8 13 0.01 0.25
4:38 pm 16:38 Cloudy with Light Rain 72 22.2 69 20.6 91 91 SSW 3 6 29.89 1012 5 8 0.02 0.51
4:53 pm 16:53 Cloudy with Light Rain 72 22.2 69 20.6 91 91 SSW 5 7 29.90 1013 10 16 0.03 0.76
5:01 pm 17:01 Cloudy 72 22.2 69 20.6 91 91 SSW 5 7 29.89 1012 10 16 0.00 0.00
5:10 pm 17:10 Mostly Cloudy 72 22.2 70 21.1 94 94 S 3 6 29.89 1012 10 16 0.00 0.00
5:17 pm 17:17 Mostly Cloudy 72 22.2 69 20.6 91 91 Calm 29.89 1012 10 16 0.00 0.00
5:25 pm 17:25 Mostly Cloudy 73 22.8 70 21.1 90 90 SW 3 6 29.89 1012 10 16 0.00 0.00
5:53 pm 17:53 Cloudy 73 22.8 70 21.1 90 90 SSW 5 7 29.90 1013 10 16 0.00 0.00
6:03 pm 18:03 Mostly Cloudy 73 22.8 70 21.1 90 90 S 3 6 29.89 1012 10 16 0.00 0.00
6:10 pm 18:10 Mostly Cloudy 73 22.8 70 21.1 90 90 SSW 5 7 29.89 1012 10 16 0.00 0.00
6:53 pm 18:53 Cloudy 75 23.9 70 21.1 84 84 Calm 29.89 1012 10 16 0.00 0.00
7:49 pm 19:49 Partly Cloudy 73 23 68 20 83 83 Calm 29.88 1012 10 16 0.00 0.00
7:53 pm 19:53 Mostly Sunny 74 23.3 69 20.6 85 85 Calm 29.88 1012 10 16 0.00 0.00
8:53 pm 20:53 Sunny 71 21.7 69 20.6 94 94 Calm 29.89 1012 10 16 0.00 0.00
9:53 pm 21:53 Mostly Clear 69 20.6 68 20 96 96 Calm 29.90 1012 10 16 0.00 0.00
10:34 pm 22:34 Clear with Mist and Fog 69 20.6 68 20 96 96 SW 3 6 29.91 1013 2 3 0.00 0.00
10:43 pm 22:43 Clear 69 20.6 68 20 96 96 WSW 3 6 29.91 1013 9 14 0.00 0.00
10:53 pm 22:53 Clear 70 21.1 68 20 93 93 Calm 29.91 1013 10 16 0.00 0.00
11:53 pm 23:53 Partly Cloudy 69 20.6 68 20 96 96 N 3 6 29.92 1013 10 16 0.00 0.00

Powered by AerisWeather